User: anonymous   Login
Location: Unspecified
(0.0000°N, 0.0000°E)
Time: 06:49:36
(UTC+02:00)
Language:

Cosmos 773 Rocket - Orbit

View from above orbital plane
View from above orbital plane
View from above satellite
View from above satellite

Ground track
Ground track

The orbit data is extracted from the following two-line orbital elements,

1  8344U 75094B   17207.75206334 +.00000049 +00000-0 +24206-4 0  9992
2  8344 074.0564 052.7246 0022607 302.7300 057.1675 14.39097279191110
Epoch (UTC): 26 July 2017 18:02:58
Eccentricity: 0.0022607
inclination: 74.0564°
perigee height: 745 km
apogee height: 777 km
right ascension of ascending node: 52.7246°
argument of perigee: 302.7300°
revolutions per day: 14.39097279
mean anomaly at epoch: 57.1675°
orbit number at epoch: 19111

The dashed part of the orbit path shows where the satellite is in the earth's shadow,  

DLR